Theta_e
287 287 287 288 287 286 286 285 285 284 285 285 282 282 285 284 279 276 282 284 281 284 286 288 288 289 290 290 289 288 287 286 286 285 284 284 284 284 283 284 284 284 284 284 285 285 285 285 285 285 286 286 287 287 287 286 286 286 286 285 284 284 284 284 284 284 285 285 286 286 285 285 285 286 286 286 285 285 285 285 286 285 285 285 284 285 285
283 285 285 286 285 284 284 284 284 284 284 283 283 283 284 283 281 283 282 283 282 284 285 287 289 290 288 287 287 286 285 285 285 285 284 284 285 284 283 283 284 284 284 284 285 285 285 285 285 285 285 285 286 286 286 286 286 286 285 284 283 283 283 283 284 284 284 284 284 284 284 284 284 285 285 286 285 284 284 284 285 285 285 285 284 284 284
280 284 285 286 284 283 281 283 284 284 283 283 283 283 283 283 282 283 283 281 281 286 288 286 286 287 287 285 283 284 284 284 284 284 284 284 285 285 284 284 283 284 284 285 285 285 285 285 285 285 285 286 286 286 286 286 285 285 285 283 283 283 282 283 283 283 283 283 283 283 283 283 282 283 285 285 284 284 284 284 283 283 284 284 285 285 285
277 281 281 282 282 281 279 279 280 281 281 279 281 280 283 282 279 281 281 279 280 285 284 285 285 284 283 282 283 283 283 283 282 282 282 283 284 285 285 284 283 283 283 284 284 284 284 285 285 285 285 285 285 285 285 285 285 285 284 283 282 282 282 283 283 282 282 282 282 282 282 281 281 282 283 284 283 283 282 282 282 282 282 282 283 284 284
275 280 281 279 278 276 273 275 278 281 281 282 282 283 284 284 284 279 277 278 284 283 286 283 284 282 281 281 282 282 281 282 282 282 282 282 283 284 285 284 284 284 284 284 284 284 285 285 285 285 285 285 284 285 285 285 285 284 283 282 282 282 282 282 282 282 282 281 281 281 281 281 280 280 281 282 282 281 281 281 281 280 280 281 282 283 283
274 278 278 277 273 267 269 281 283 283 280 281 279 279 281 283 284 281 283 281 282 282 282 281 280 280 279 280 281 283 282 281 282 282 283 283 284 285 286 286 284 284 284 284 285 285 285 286 286 286 286 285 285 286 285 285 284 283 283 282 282 281 281 281 281 281 281 281 280 280 281 280 279 279 279 280 281 281 280 279 279 279 279 279 280 282 283
273 277 275 271 266 268 279 283 284 285 283 282 280 280 281 282 283 283 282 284 283 282 282 280 280 280 281 281 281 282 283 283 283 282 282 283 283 283 284 285 285 284 284 284 284 285 285 285 285 286 285 285 285 284 284 283 283 282 282 281 281 281 280 281 281 281 280 280 280 280 280 279 278 277 278 278 279 279 278 278 277 277 277 277 279 280 281
277 274 273 266 266 276 276 281 282 284 283 282 280 278 281 281 282 283 282 283 284 284 281 280 280 280 280 281 282 283 284 284 283 283 282 282 283 283 284 284 285 285 284 284 284 284 286 285 285 285 284 284 283 282 283 282 281 281 281 281 280 280 280 280 280 280 280 279 279 279 279 278 277 276 277 277 277 278 277 276 276 276 276 277 278 278 279
270 273 272 271 277 276 278 278 280 281 278 279 278 273 278 283 282 283 282 283 283 281 280 280 280 281 282 280 281 284 284 285 285 283 283 283 283 284 285 285 285 286 286 285 285 285 284 284 283 283 283 282 281 281 280 279 279 279 279 279 279 280 279 279 279 279 279 278 278 278 278 277 276 275 275 275 276 277 275 274 274 274 274 275 276 277 278
277 272 270 271 270 267 273 278 282 283 282 282 281 279 274 280 278 282 282 281 282 279 279 279 280 282 278 275 278 283 283 285 285 284 285 284 284 284 284 284 285 285 286 285 284 283 282 282 282 282 282 281 280 279 278 278 278 278 278 278 278 278 278 278 278 278 278 278 277 277 277 275 275 275 275 275 275 275 273 272 272 272 273 274 275 276 277
274 271 269 268 266 269 277 274 278 279 281 280 281 277 271 278 275 278 278 277 278 278 278 278 280 278 274 274 278 282 283 283 283 283 283 284 284 284 284 284 283 283 282 282 282 282 281 280 280 280 280 279 278 277 276 276 276 276 276 276 277 277 277 277 277 277 277 277 276 276 275 274 274 273 273 273 274 273 272 272 271 272 272 272 273 274 274
272 271 269 267 271 270 275 276 278 280 282 283 278 267 268 277 278 280 278 276 276 278 279 279 278 276 273 275 279 283 283 283 283 283 283 283 283 284 284 284 282 282 282 281 280 280 279 279 280 279 278 278 276 275 275 275 274 274 274 275 276 275 275 276 276 275 275 274 274 274 273 273 273 272 273 272 272 271 271 271 270 270 271 271 270 271 272
272 272 270 272 272 279 279 280 282 282 284 279 269 264 273 278 280 281 281 279 279 279 279 279 276 278 280 280 282 283 283 283 283 284 284 284 284 283 283 281 282 281 280 279 278 278 278 278 278 277 276 275 274 273 273 272 272 273 273 274 273 273 274 274 274 273 273 273 272 272 272 271 271 271 271 271 270 269 269 269 269 269 269 269 269 269 270
270 271 269 269 272 278 279 282 283 283 278 268 268 275 279 280 280 281 280 279 280 280 279 279 279 280 282 282 282 282 282 282 283 283 283 283 283 282 282 282 280 279 278 278 277 277 277 276 275 274 274 272 271 271 270 270 271 272 272 272 271 271 271 271 271 271 270 270 270 269 270 270 269 269 269 269 269 268 268 268 267 267 267 267 267 268 269
273 271 268 267 263 276 280 280 279 281 273 274 280 279 280 281 281 281 280 280 280 281 279 280 281 281 281 281 281 282 282 282 282 282 282 281 280 279 279 279 279 277 276 275 275 274 274 273 273 272 271 269 269 269 268 269 270 270 269 269 268 268 268 268 267 266 266 266 266 267 267 267 267 267 267 267 267 267 266 266 266 265 266 266 266 266 267
269 268 266 266 274 278 282 279 274 278 280 283 283 282 281 283 282 281 281 281 281 281 280 280 280 280 280 281 281 282 282 282 282 282 281 280 279 279 278 278 277 275 273 273 272 271 271 271 271 270 269 267 267 266 266 268 267 267 266 266 265 265 264 264 263 263 263 263 264 264 264 264 264 264 264 265 265 265 265 265 265 264 265 265 266 266 266
273 271 274 278 281 281 283 282 282 282 284 284 284 283 282 281 281 283 281 281 282 282 281 280 280 280 280 280 281 281 281 281 280 279 278 278 277 277 276 275 274 272 270 269 269 268 269 269 268 268 267 265 264 264 265 266 265 264 264 263 262 262 261 261 261 261 261 261 261 262 262 262 262 262 262 263 263 264 264 264 264 264 264 265 265 265 266
279 280 280 281 281 281 281 283 284 283 283 284 284 283 281 282 282 283 281 281 281 281 282 280 280 280 280 280 280 280 280 279 278 278 277 277 277 276 274 273 271 269 269 267 266 266 266 266 266 266 265 264 262 263 264 264 263 263 262 261 260 260 260 260 260 260 260 260 260 261 261 262 262 262 262 262 262 262 263 263 263 263 263 264 264 264 265
274 269 279 278 279 281 281 282 283 284 284 284 284 282 282 282 283 282 283 282 281 281 281 280 279 279 280 279 279 279 278 277 277 276 275 275 274 272 271 270 269 267 266 265 264 264 263 264 264 264 263 263 263 263 262 263 262 262 261 260 259 259 259 259 260 260 259 259 260 260 261 261 261 262 262 262 262 262 262 262 262 262 262 263 263 264 264
274 273 277 279 281 281 282 282 281 281 282 283 283 284 283 283 283 283 282 281 280 280 279 279 279 279 279 277 277 276 276 275 275 274 274 273 271 270 269 268 267 265 264 263 262 262 261 262 263 262 262 262 262 262 262 262 261 261 260 259 259 259 259 259 259 259 259 260 260 260 260 260 260 260 261 261 261 260 260 261 261 261 261 262 262 262 263
277 279 279 279 280 280 281 282 282 283 283 283 283 283 283 283 282 281 280 280 279 279 279 278 277 276 276 276 275 274 274 273 273 272 271 270 269 268 267 266 265 263 262 261 261 261 260 262 262 261 261 261 262 262 261 261 260 259 259 259 259 258 259 259 258 259 259 259 260 259 260 260 260 261 260 260 260 260 262 262 261 261 260 261 262 262 263
272 273 276 279 274 274 279 281 282 282 283 283 283 283 282 282 281 280 278 277 277 276 276 275 275 273 274 274 273 272 272 271 271 270 269 268 266 266 265 265 263 262 262 261 260 260 260 261 261 261 261 261 261 261 261 260 260 259 258 258 258 258 258 258 258 259 259 259 259 259 259 259 259 260 263 266 265 262 262 265 268 269 269 264 264 265 264
272 278 280 281 280 279 280 281 283 283 283 283 282 281 281 281 281 279 278 276 274 274 274 274 272 272 272 272 271 270 269 269 269 268 267 265 264 264 264 262 261 261 260 260 259 259 260 261 260 260 260 260 260 260 260 260 260 259 258 258 258 257 258 258 258 258 258 258 259 259 259 259 259 259 259 261 266 268 268 267 268 269 270 271 271 271 268
280 281 281 282 280 279 280 282 283 283 283 282 281 282 281 279 277 275 276 276 275 274 273 271 271 270 270 269 268 267 267 267 266 265 265 264 263 263 262 261 260 259 259 259 259 259 260 260 259 259 259 259 259 260 260 260 260 259 258 257 257 257 257 257 258 258 258 258 258 258 259 259 259 259 259 258 259 265 267 268 268 269 269 270 271 271 271
279 282 282 283 282 282 283 283 281 280 278 280 280 280 278 276 274 274 273 273 272 271 271 270 270 269 267 267 266 266 265 264 264 263 263 262 262 261 261 260 259 259 259 259 259 259 259 259 258 259 258 259 259 259 260 260 259 258 258 257 257 256 257 257 257 258 258 258 258 258 258 258 258 259 258 258 257 258 261 266 267 268 268 269 269 270 270
283 283 283 284 284 283 283 280 279 277 276 277 276 274 273 273 272 271 271 270 270 269 268 269 268 267 266 264 264 263 262 262 262 262 261 260 260 259 259 259 259 259 259 259 259 258 258 258 258 258 258 258 259 260 260 260 259 258 257 257 257 257 257 257 257 257 257 258 258 258 259 259 258 258 259 259 258 258 258 258 260 263 266 267 268 268 269
284 284 283 281 280 281 282 280 279 279 276 275 275 273 271 269 268 269 268 267 267 267 267 266 265 264 262 262 261 261 260 261 260 260 260 259 258 258 259 259 259 259 258 258 258 258 258 258 258 258 258 259 260 260 260 259 258 258 257 257 257 258 258 258 257 257 258 258 258 258 258 258 258 258 258 259 259 258 258 257 257 258 258 260 264 267 265
283 284 283 278 278 280 280 276 274 272 272 272 271 269 267 267 266 264 263 264 265 265 264 263 262 260 260 261 260 259 259 258 258 258 258 258 258 258 258 258 258 258 258 257 257 258 258 258 258 258 258 259 260 260 259 259 258 257 257 257 257 257 258 258 258 258 258 258 259 259 259 259 259 259 259 259 258 258 259 259 258 258 259 260 260 265 268
283 283 282 280 277 274 272 271 271 270 268 268 268 266 265 263 262 263 264 266 265 264 263 263 261 260 259 259 259 258 257 257 257 257 257 258 258 258 258 258 258 257 257 257 257 258 258 258 258 257 258 259 260 260 259 258 258 257 257 257 257 257 258 258 258 258 259 259 259 259 260 259 259 259 259 259 259 259 259 259 259 259 260 260 261 262 265
281 275 273 273 272 272 272 270 271 270 267 266 265 263 264 264 264 264 265 265 263 262 263 262 260 259 259 257 257 257 256 256 256 257 257 257 257 257 257 257 257 257 257 258 258 258 258 257 257 257 258 259 260 259 259 258 258 258 258 258 258 258 258 258 259 259 259 259 259 260 260 260 260 260 260 260 260 260 259 259 260 260 260 260 262 260 260
271 269 269 269 268 269 271 272 270 269 266 265 265 263 263 263 264 264 264 263 262 261 261 259 258 257 257 256 256 256 256 255 255 255 255 255 255 256 256 256 256 256 257 257 257 257 257 257 257 257 258 259 259 258 258 258 258 258 258 258 258 259 260 260 261 260 260 260 260 260 260 260 260 260 260 260 260 259 259 259 260 260 260 260 260 261 261
267 264 264 266 266 266 267 267 267 266 265 264 262 261 262 261 260 262 262 259 259 258 257 256 255 255 256 256 255 255 255 255 254 254 254 255 255 256 256 257 257 258 257 257 257 257 257 257 256 258 259 259 258 258 258 258 258 257 257 258 258 258 259 260 259 260 260 260 260 260 260 260 260 260 260 260 260 260 260 260 259 260 260 261 261 262 263
267 266 266 263 262 262 263 265 265 265 264 262 263 262 261 259 259 258 258 258 257 257 256 256 256 256 256 255 254 254 254 253 253 253 253 253 255 256 257 258 258 257 257 257 257 257 257 257 258 259 258 258 258 258 258 258 257 257 257 257 257 258 259 260 260 260 260 260 260 261 261 261 261 261 260 260 261 261 260 260 260 260 261 261 262 263 264
273 274 271 269 268 268 267 264 264 264 263 262 261 259 258 258 257 257 256 256 255 255 255 255 255 255 255 254 253 253 253 252 252 254 255 255 255 256 257 258 257 257 257 257 257 257 258 259 258 257 257 257 257 257 257 257 257 257 257 257 258 258 258 259 260 260 260 260 261 261 262 262 262 261 261 261 261 261 261 261 261 261 261 262 262 263 265
262 261 261 260 259 258 261 264 264 263 261 259 257 256 257 256 255 254 255 254 254 254 255 255 255 255 254 253 253 252 252 252 252 253 253 254 255 256 257 256 256 256 255 256 257 258 259 258 257 257 257 257 257 257 257 257 257 257 257 257 258 258 259 259 259 259 260 260 261 261 262 262 262 263 263 262 262 262 262 262 262 262 262 262 263 264 265
259 257 256 255 254 254 254 254 256 256 257 256 255 255 254 254 254 254 253 254 255 256 256 255 255 254 253 252 252 252 252 252 253 253 253 254 256 257 256 255 255 254 254 255 257 257 257 257 258 258 258 257 257 257 257 257 257 257 258 258 258 258 258 259 259 260 260 261 261 261 261 262 262 263 263 263 263 263 262 262 262 263 263 263 264 265 266
256 256 255 254 254 254 253 253 253 253 253 253 254 253 253 253 253 253 254 254 254 254 254 254 253 252 251 252 252 253 253 253 253 254 255 255 256 255 254 254 254 254 255 255 257 257 256 257 257 258 257 256 257 256 257 258 258 258 257 257 257 257 258 258 258 259 259 260 260 260 261 261 261 262 262 262 262 263 263 263 263 263 264 264 264 264 264
255 255 254 254 252 252 253 252 251 251 251 251 251 252 252 251 252 252 252 252 253 253 253 253 252 252 252 252 252 252 252 252 252 252 253 253 254 254 254 254 255 256 256 256 257 257 256 257 257 257 256 256 256 256 256 258 258 257 257 257 257 257 257 258 258 258 259 259 259 259 260 260 260 260 261 261 261 262 262 262 262 262 262 262 262 262 262
255 254 254 253 253 252 252 251 250 249 250 250 250 250 251 251 251 251 251 251 252 252 252 251 252 251 251 250 250 250 251 251 252 252 252 253 254 253 254 255 255 256 256 257 256 256 256 257 257 256 255 256 255 256 256 257 258 257 257 257 256 257 257 257 257 258 258 258 258 258 259 259 259 259 260 260 261 261 261 261 261 261 261 260 260 260 260
255 254 253 252 252 252 251 252 251 250 250 250 250 250 251 251 251 251 251 251 252 252 252 251 251 250 250 249 249 250 251 251 252 252 252 253 253 253 254 255 256 256 256 257 256 256 257 257 256 255 255 255 255 256 256 257 257 257 256 256 256 256 257 257 257 257 257 257 257 258 258 258 258 259 259 259 260 260 259 260 260 260 259 259 259 259 259
253 253 253 252 252 252 251 252 252 252 251 250 250 250 251 251 251 251 250 250 250 250 249 249 249 249 249 249 249 249 250 251 252 252 253 253 253 254 255 255 258 257 256 256 256 256 256 256 256 255 255 255 255 256 256 256 256 256 256 256 256 256 256 256 256 256 256 256 257 256 256 257 257 257 258 258 258 258 259 258 258 259 258 258 258 258 258
254 253 253 253 252 252 252 251 251 251 251 251 251 251 251 251 251 250 250 250 250 249 249 249 250 249 249 249 250 250 250 251 252 252 253 253 254 254 254 256 258 257 257 256 256 256 256 255 255 256 255 255 255 256 256 256 255 255 256 256 256 256 256 256 256 256 256 256 256 256 256 256 256 256 257 257 257 258 258 258 258 258 258 258 258 258 258
252 250 251 250 251 250 250 250 250 250 250 251 251 251 250 250 250 249 249 249 249 249 248 248 249 250 250 250 250 250 251 252 252 252 253 254 254 255 255 256 257 257 257 256 256 256 256 256 255 255 255 255 255 256 256 256 255 255 255 255 255 255 255 255 255 255 256 255 255 256 256 256 256 256 256 256 256 257 257 257 257 257 257 257 257 257 257
250 250 250 250 250 251 251 251 251 251 250 251 252 250 250 249 249 248 248 248 248 249 248 248 248 248 248 249 249 251 253 255 255 256 255 255 256 257 257 256 256 256 256 256 256 255 255 255 255 255 255 255 255 255 255 255 255 255 255 254 254 254 255 255 255 255 255 255 255 255 255 256 256 256 256 256 256 256 257 257 257 257 257 257 258 257 257
250 251 250 250 250 249 249 250 250 250 251 251 250 248 248 248 248 248 248 248 248 248 249 249 249 250 250 251 252 253 255 256 256 256 254 254 255 256 256 256 256 256 255 255 255 255 255 255 255 255 255 255 255 255 255 255 255 255 255 254 254 254 254 254 254 254 254 254 255 255 255 255 255 256 256 256 256 256 256 256 257 257 258 257 257 257 257
250 250 249 249 248 248 249 250 250 249 248 247 246 247 247 247 247 248 247 247 247 248 248 250 251 251 252 252 254 254 255 256 256 256 256 256 255 257 257 256 256 255 255 255 255 255 255 255 255 254 254 254 254 254 255 255 255 255 254 254 254 254 254 254 254 254 254 254 254 254 254 255 255 255 255 255 255 255 256 256 257 257 257 257 257 257 257
249 248 247 247 247 247 247 246 246 246 245 245 244 246 250 249 249 250 250 249 248 248 249 249 250 252 253 253 255 255 255 256 256 257 257 257 257 256 256 256 255 255 255 255 255 255 254 254 254 254 254 254 254 254 254 255 254 254 254 253 254 254 254 254 253 253 253 254 254 254 254 255 254 255 255 255 255 255 255 255 255 256 256 256 256 256 255
246 246 246 245 245 245 245 244 242 243 244 245 247 249 250 250 249 249 250 250 250 250 251 251 252 252 253 254 255 256 256 256 254 256 258 256 257 256 256 255 255 255 255 254 255 255 255 254 254 254 253 253 254 254 254 254 254 254 253 253 253 253 253 253 253 253 253 253 253 253 253 253 253 253 254 254 254 255 255 254 254 254 255 255 255 255 254
244 245 245 245 244 243 243 244 246 247 249 250 248 250 250 250 250 251 251 251 251 251 252 253 254 255 256 256 256 257 257 257 256 256 257 257 256 256 256 256 255 255 254 254 254 254 254 254 254 253 253 253 254 254 254 254 253 254 253 253 253 253 253 253 253 253 252 252 253 253 253 253 253 253 253 253 254 254 254 254 254 254 254 254 254 254 254
245 245 246 248 249 248 248 250 251 251 252 252 252 253 252 252 253 254 256 256 256 257 257 257 257 257 257 257 257 257 257 257 257 256 256 256 255 255 255 255 255 255 254 254 253 254 254 254 254 253 253 253 254 254 254 254 253 254 253 253 253 253 253 253 253 253 252 252 252 252 252 252 252 252 252 253 253 253 253 253 253 254 254 254 254 254 254
249 249 250 251 250 250 247 248 250 251 251 252 252 253 254 254 255 256 256 256 256 256 256 256 257 257 258 257 257 257 257 256 256 256 256 256 256 255 255 255 254 254 254 254 253 254 254 254 254 253 253 253 254 254 254 253 253 253 253 253 253 253 253 253 252 252 252 252 251 252 252 251 251 251 251 251 251 251 252 252 252 252 253 253 253 253 254
246 247 248 249 250 250 250 250 249 250 250 252 253 255 255 256 256 256 256 257 256 256 256 255 255 257 258 257 257 257 257 256 256 256 256 256 255 255 255 255 255 255 255 254 254 253 254 254 253 253 252 253 253 253 253 253 253 253 253 253 253 253 252 252 252 251 251 251 251 251 251 251 250 250 251 250 251 251 251 251 251 251 251 251 252 252 252
Wind_Speed
16 16 18 18 16 15 16 16 16 17 17 15 17 16 15 14 14 18 15 20 19 17 18 19 18 13 3 4 5 3 2 2 3 4 5 6 6 5 5 5 4 5 4 5 5 5 5 6 6 7 6 6 6 6 7 7 7 6 7 7 8 8 9 9 9 8 8 8 7 7 8 8 9 9 9 9 9 8 8 9 8 8 7 7 8 8 8
11 16 17 16 17 17 17 19 20 21 22 24 22 20 19 19 18 20 22 23 25 21 22 23 12 4 3 4 4 3 3 3 4 5 5 6 7 6 5 5 5 5 5 6 6 6 7 7 7 7 7 7 6 7 7 7 7 7 7 8 9 9 9 9 9 9 10 9 9 8 8 8 9 10 10 9 9 10 12 10 9 9 10 10 9 8 8
8 13 14 14 13 13 15 14 16 20 22 22 19 21 24 24 22 23 25 24 23 18 9 7 7 4 4 2 3 2 2 2 3 4 6 7 7 7 6 5 6 6 6 6 6 6 6 7 7 7 7 7 7 7 7 7 7 7 7 8 9 9 10 10 9 9 9 9 9 9 9 8 8 8 11 9 9 9 9 9 12 12 11 10 10 9 9
12 8 10 8 6 11 12 12 16 20 20 20 17 17 16 17 19 20 20 18 17 8 7 3 5 3 2 1 2 2 3 2 4 5 7 7 7 8 7 6 6 6 6 6 6 7 7 7 7 7 6 6 7 8 8 8 7 6 6 8 9 9 10 10 10 10 10 10 11 9 7 7 8 8 9 9 9 10 11 11 10 10 13 13 12 10 9
7 8 7 9 3 3 10 15 20 19 19 18 19 19 20 21 20 18 15 15 3 3 1 0 2 5 3 2 3 4 4 5 5 7 8 8 9 8 8 8 7 7 7 7 7 7 7 7 7 7 7 7 7 7 7 7 7 7 8 8 9 10 10 10 11 10 11 10 9 9 7 7 7 8 9 11 10 10 10 9 11 13 13 13 14 14 12
3 6 5 2 2 10 13 1 2 8 13 12 15 15 16 17 16 7 3 1 3 2 2 1 1 4 3 6 5 5 4 5 7 7 8 8 9 10 9 9 8 7 6 6 7 8 8 8 8 7 7 7 8 7 7 6 7 7 8 8 9 10 10 10 10 10 11 10 11 11 9 8 8 10 10 10 10 9 9 9 10 10 11 14 14 13 12
6 6 3 6 12 13 2 4 6 6 5 6 13 17 19 17 13 5 10 10 3 3 3 4 4 4 6 6 8 6 7 5 6 8 8 9 10 11 11 11 10 8 8 8 9 9 9 9 8 7 7 7 7 7 7 8 8 10 10 11 10 10 11 12 11 10 10 10 11 11 10 9 9 11 12 11 11 8 7 9 10 11 12 13 12 13 12
10 10 10 12 11 2 3 2 3 4 5 10 11 14 14 15 15 14 11 9 5 3 2 5 3 5 7 7 8 10 9 8 7 7 7 8 9 11 11 12 13 12 10 10 10 10 8 7 7 7 8 8 8 8 8 9 10 9 10 10 13 11 10 11 10 12 10 11 11 11 10 7 9 12 13 13 13 9 7 8 9 9 11 12 13 14 14
13 10 13 18 9 15 12 13 12 9 7 7 6 8 6 3 2 5 4 3 4 3 4 5 6 6 6 7 9 9 10 7 5 5 7 8 9 10 11 12 13 14 13 12 10 8 7 8 8 8 8 8 8 8 9 8 9 10 11 11 12 12 11 12 12 12 12 11 12 11 10 10 12 13 13 15 13 7 9 10 11 11 12 13 13 13 14
10 13 13 13 12 14 8 0 3 8 6 5 3 4 5 3 3 2 3 2 6 2 3 5 5 2 5 7 7 6 4 1 3 5 5 7 9 10 11 12 13 14 12 10 10 9 10 10 9 9 9 9 9 8 10 10 10 11 11 12 12 12 13 12 13 11 10 11 12 12 12 13 13 12 12 12 13 8 9 12 13 14 12 13 14 13 14
9 13 13 12 11 8 4 3 3 2 4 3 2 4 9 1 3 4 6 4 1 2 4 4 3 3 6 7 6 5 4 5 6 7 8 9 10 11 11 12 12 9 9 9 10 10 10 12 12 11 10 9 9 9 10 12 11 11 11 13 13 12 14 13 12 12 11 11 13 13 13 13 13 15 15 14 12 9 10 11 12 13 12 13 15 14 14
11 10 12 13 4 4 2 2 1 1 2 4 4 12 10 2 5 6 2 1 2 3 5 6 4 6 8 8 8 8 9 8 8 9 11 12 12 11 12 9 9 10 10 9 10 11 11 12 12 11 9 8 8 10 12 12 11 11 12 13 13 14 15 15 12 10 11 13 15 15 15 15 14 14 13 12 12 11 11 11 12 12 12 14 17 16 15
11 15 12 9 8 7 4 5 1 7 2 1 5 12 4 4 5 7 3 3 5 6 6 6 6 7 8 10 11 10 9 10 10 10 10 11 11 9 8 7 8 7 8 8 9 11 10 10 10 9 8 9 10 11 12 12 12 13 13 14 14 14 14 14 14 14 13 13 15 16 15 15 15 15 14 13 14 15 14 13 14 13 16 16 16 17 17
11 11 13 12 11 6 3 6 4 7 2 6 9 2 4 9 6 7 7 6 7 7 7 7 8 9 10 11 10 10 10 10 11 11 11 9 7 6 6 7 8 8 8 9 10 9 9 10 10 8 8 10 11 12 12 13 13 14 14 14 15 15 15 16 14 15 15 16 16 16 16 15 16 17 15 14 14 16 14 14 17 17 16 15 15 16 16
8 8 10 10 11 1 3 5 5 7 6 6 5 3 5 7 5 3 5 8 8 7 8 8 9 10 10 10 11 10 11 10 11 10 6 5 7 8 8 8 7 7 8 9 9 10 9 10 9 8 9 11 11 11 13 15 14 14 14 15 16 16 16 16 17 18 18 18 17 15 16 17 17 18 17 16 17 15 17 17 19 21 20 18 19 19 17
10 9 8 6 4 6 6 6 5 3 7 8 6 2 6 5 4 5 5 6 6 6 8 9 10 10 11 11 11 11 11 10 9 5 5 7 7 8 7 7 7 6 8 8 10 10 9 9 8 8 9 12 13 14 16 14 14 13 13 13 15 15 15 16 17 17 16 18 17 16 17 17 17 19 20 18 17 16 16 15 17 19 16 16 16 17 18
9 8 10 6 7 1 5 7 8 9 9 7 8 8 8 9 9 7 7 8 8 7 8 9 10 11 11 12 11 11 10 7 4 5 6 6 7 8 8 7 6 5 8 10 11 12 10 9 10 8 8 11 14 16 15 12 13 12 13 15 15 16 16 17 17 16 17 16 16 16 16 15 17 17 18 16 16 16 15 17 16 17 17 15 16 17 17
12 14 14 12 13 13 9 9 9 12 14 13 11 11 10 9 8 7 8 9 8 8 7 8 8 9 11 11 9 7 6 5 6 5 6 6 7 7 6 5 7 7 8 8 10 12 13 9 10 9 8 8 13 15 14 12 13 13 14 16 16 17 17 16 16 16 17 18 16 15 16 14 15 15 16 15 15 15 14 15 16 16 17 16 16 17 18
10 10 9 12 16 16 14 15 13 11 11 11 11 11 11 11 9 9 8 7 8 7 6 7 9 9 8 8 6 6 6 6 6 6 7 7 6 6 5 7 7 7 7 9 11 12 13 10 8 8 9 9 10 13 14 13 14 14 14 15 19 19 16 17 16 15 17 15 15 15 14 13 13 13 14 14 14 15 14 15 16 16 16 16 16 16 17
13 13 13 16 15 16 15 13 12 13 14 14 14 11 9 9 8 6 5 3 5 4 5 7 8 7 5 5 6 5 5 5 6 6 6 6 6 6 6 6 5 5 7 10 12 13 12 10 9 9 9 10 11 12 12 13 13 14 16 18 17 18 18 16 16 15 15 19 19 15 15 13 15 13 13 14 14 15 14 14 15 16 16 16 17 16 16
13 15 17 17 17 18 18 17 15 14 13 13 13 13 12 12 8 4 4 4 4 4 5 1 2 4 5 5 5 5 5 5 5 5 5 6 5 6 7 6 5 7 9 10 11 11 12 11 11 11 11 11 11 11 13 13 14 16 17 18 17 19 18 16 15 14 14 15 15 15 15 15 13 14 14 13 16 17 15 14 16 17 16 18 17 16 16
14 12 13 13 11 10 11 13 12 12 13 13 13 11 10 7 6 5 5 5 4 3 2 2 3 3 4 4 3 4 4 5 5 6 6 6 6 7 7 7 7 8 8 10 12 12 12 11 11 12 12 11 11 13 14 13 14 15 17 18 18 17 15 15 15 14 14 14 14 15 15 15 17 14 18 25 20 18 19 23 31 33 28 22 19 17 18
11 13 15 13 13 15 15 16 14 13 11 10 10 9 9 8 5 4 5 5 5 5 5 3 3 3 4 4 3 3 4 4 4 5 6 6 8 9 8 9 8 7 9 11 12 12 11 10 11 12 13 14 15 14 12 13 13 15 17 17 16 15 15 14 15 15 15 15 15 14 15 16 15 17 16 14 24 29 30 29 30 32 32 35 36 35 27
18 18 15 13 12 14 14 14 14 11 5 7 8 8 2 3 5 4 4 5 5 4 5 4 2 2 2 2 2 3 5 5 5 6 6 7 8 9 8 7 8 10 11 11 11 12 11 11 12 13 14 15 14 14 13 12 12 14 16 16 16 16 15 15 16 16 15 15 15 15 15 14 16 15 16 17 16 20 26 28 29 30 31 33 34 34 35
17 17 16 16 14 15 14 10 2 4 3 4 6 6 5 5 4 4 5 3 2 3 3 3 3 2 1 2 2 4 4 5 5 7 7 8 9 8 7 7 9 9 10 9 11 11 11 12 14 14 15 15 13 13 13 13 13 15 15 15 17 17 17 17 16 16 15 14 14 14 15 15 15 15 15 15 17 16 15 22 27 29 30 31 32 32 33
18 17 18 17 15 15 12 2 5 6 6 6 4 4 4 4 5 5 3 3 2 3 3 3 3 2 2 0 2 3 4 5 6 6 7 7 6 6 7 7 8 9 10 10 11 12 13 14 14 14 15 15 14 14 14 14 14 13 14 14 15 16 16 17 17 15 15 14 14 14 14 14 15 15 15 16 16 16 17 15 15 19 23 27 28 30 30
17 17 15 12 14 16 12 10 9 5 7 6 5 6 6 6 5 4 4 3 2 2 2 2 2 2 2 2 3 4 5 6 6 7 7 7 7 7 6 7 9 11 11 12 12 12 13 13 14 14 15 15 14 15 15 14 13 14 14 15 14 18 25 21 15 15 14 14 14 14 14 14 14 15 15 15 16 16 15 17 16 17 16 15 19 25 22
16 15 13 13 13 13 7 2 8 7 6 6 7 7 7 6 4 4 3 3 3 3 2 2 2 2 1 2 2 4 4 5 6 6 6 7 6 6 8 9 10 11 10 11 13 12 11 12 12 14 16 15 14 14 13 12 13 14 14 15 14 13 14 16 15 13 14 14 14 14 14 14 14 15 15 15 16 15 16 15 16 17 15 14 13 18 29
15 14 8 5 2 6 7 5 6 6 6 5 6 6 6 6 4 4 4 5 5 5 3 3 3 2 2 3 3 4 5 5 6 7 6 6 7 8 8 9 10 11 11 12 12 10 10 11 14 15 16 14 13 12 11 12 14 13 14 13 13 13 13 13 13 13 13 14 14 15 15 16 15 15 15 15 14 14 13 14 15 14 16 14 13 14 18
12 2 3 2 4 5 6 4 5 6 7 6 6 4 4 6 5 5 5 6 5 4 3 3 2 2 2 3 4 4 5 6 6 7 7 8 8 8 8 9 10 10 9 8 8 10 13 13 13 14 15 13 12 12 13 13 13 13 13 14 13 12 12 12 13 14 14 14 14 18 15 14 13 13 14 14 14 14 14 14 15 15 15 14 15 14 15
5 4 4 4 4 2 6 5 5 6 6 5 6 5 5 4 4 4 5 5 4 3 2 2 2 3 4 5 4 5 6 6 7 8 8 9 9 9 9 8 7 8 9 11 12 12 12 13 13 13 12 12 12 13 13 13 13 13 13 12 11 17 22 24 19 15 14 14 14 14 14 13 13 13 13 13 13 13 13 12 13 13 14 13 14 14 14
5 5 4 2 2 2 2 2 3 5 6 5 5 5 6 6 5 6 4 2 2 2 2 3 5 5 5 4 4 6 6 7 7 9 9 9 9 9 8 8 8 9 10 11 11 10 11 12 14 13 11 12 13 12 12 13 12 12 12 12 12 12 14 21 15 15 14 14 14 14 13 13 12 12 12 12 12 12 12 11 12 12 12 13 13 13 13
3 0 3 3 1 2 4 4 5 6 6 6 6 3 3 3 2 3 3 3 2 3 4 5 4 4 4 5 5 6 5 6 7 9 9 9 9 8 7 7 7 7 9 9 10 11 11 12 11 11 13 14 13 12 11 11 11 11 11 11 11 12 13 15 17 15 14 14 13 13 13 13 12 12 11 12 12 12 11 12 12 12 12 12 13 13 13
9 9 4 1 6 8 10 10 6 4 4 4 4 4 3 3 4 4 3 3 3 4 4 5 4 4 5 5 5 5 5 6 7 7 7 7 9 9 8 7 7 8 10 10 10 9 8 8 9 12 14 14 13 11 9 9 10 10 10 10 12 12 12 12 14 13 13 13 13 14 13 12 12 11 11 11 11 10 11 11 12 12 12 12 12 11 16
6 7 6 5 5 5 4 2 7 7 7 8 5 4 4 3 3 3 3 3 5 5 4 4 4 4 4 5 5 5 6 8 9 9 9 8 8 9 8 8 9 10 11 11 8 8 6 8 11 12 12 12 12 10 8 10 9 10 10 11 12 11 11 12 12 12 12 13 13 13 13 13 13 12 12 12 11 11 11 11 11 11 11 12 11 11 12
4 7 6 5 6 7 7 6 5 4 5 5 5 4 5 4 5 4 5 5 4 4 4 4 3 3 3 5 6 7 8 8 8 8 8 9 8 7 7 9 10 11 12 13 8 4 6 9 13 17 13 13 11 8 9 9 9 10 12 11 11 11 11 11 11 11 12 12 12 13 12 15 15 13 12 11 10 10 11 11 11 11 11 12 12 12 11
5 6 5 5 4 5 6 5 4 4 3 4 4 4 4 5 5 4 4 4 4 4 3 3 4 5 6 7 8 7 8 8 7 7 7 7 7 7 8 9 9 8 8 9 6 6 9 9 14 20 14 9 9 9 10 16 11 11 11 9 9 9 10 10 10 11 12 11 12 12 14 13 11 12 12 11 11 11 11 10 10 10 10 10 10 10 10
4 5 5 5 4 5 4 3 3 3 3 2 2 3 4 4 3 3 3 3 4 4 4 5 6 5 6 6 7 8 8 8 8 8 8 9 7 8 9 7 7 5 6 6 7 9 8 11 17 13 10 8 8 9 11 16 18 13 9 9 9 9 10 10 11 11 11 11 12 11 11 11 12 11 11 11 11 11 11 11 11 10 10 10 9 9 10
5 4 4 4 3 3 3 2 3 2 3 5 3 3 3 3 3 2 3 5 4 5 6 6 6 6 7 7 8 7 8 8 8 8 9 9 7 6 8 8 8 8 8 7 8 8 8 9 10 10 9 7 9 9 10 13 18 10 9 8 9 8 9 9 10 11 11 11 10 11 11 11 11 12 11 11 11 11 11 12 11 10 10 10 10 9 9
3 3 3 3 2 2 2 2 2 3 3 3 3 4 2 1 2 3 4 5 6 5 5 5 5 6 6 7 8 8 8 7 6 7 9 8 6 7 8 8 9 8 5 7 6 6 10 16 12 8 8 7 7 7 8 13 14 8 7 7 8 8 8 9 9 9 10 10 11 13 11 11 11 11 11 11 11 11 11 11 11 10 10 9 9 9 9
3 3 2 2 2 2 2 2 2 1 2 2 2 3 3 3 3 4 5 6 5 4 5 5 6 7 9 9 9 10 9 8 8 10 9 6 6 5 4 6 2 1 1 4 6 8 11 10 8 8 7 8 7 9 9 12 8 5 6 6 7 8 8 9 9 9 10 10 11 10 11 11 11 11 11 11 11 10 10 11 11 10 10 10 10 9 9
3 3 2 2 1 1 1 1 2 2 3 2 3 3 4 5 5 6 6 5 5 5 6 6 9 9 8 8 8 8 9 10 9 9 7 7 5 4 5 6 2 1 6 9 8 8 7 6 7 6 6 8 8 13 16 9 6 5 6 6 6 7 7 8 8 8 9 8 8 9 9 9 9 10 10 10 10 11 11 11 10 10 10 10 10 10 10
3 2 2 1 2 1 1 2 2 3 3 4 2 3 4 4 4 5 5 6 6 7 7 8 8 9 9 8 8 8 9 8 8 8 7 7 9 9 7 6 4 5 9 7 7 6 6 6 6 4 11 11 9 15 14 6 4 5 5 6 7 7 6 6 7 7 8 8 8 8 8 9 9 9 10 10 10 10 10 10 10 11 11 10 10 10 10
3 2 2 2 2 2 1 2 2 2 3 4 4 2 3 4 5 6 7 7 7 7 8 8 7 7 8 7 6 6 6 5 4 3 3 4 4 5 9 5 3 6 9 7 6 6 6 6 5 10 15 15 15 15 8 4 5 4 4 6 6 6 6 7 7 7 7 8 8 9 9 9 9 9 9 9 10 9 9 9 8 8 9 9 9 9 9
3 3 2 2 0 0 1 2 2 3 3 4 5 6 7 7 8 7 7 7 8 8 7 7 7 8 7 6 7 6 6 4 3 2 3 3 3 2 2 2 3 4 5 8 7 6 6 5 9 14 13 15 14 14 5 4 5 5 5 5 5 6 6 6 7 7 7 7 7 8 8 8 8 8 8 8 9 9 9 9 9 9 9 9 9 9 10
3 3 2 1 1 1 1 2 2 3 3 4 6 8 9 7 7 6 5 7 8 8 7 7 8 8 7 6 6 7 6 6 6 5 5 4 4 3 2 4 4 4 9 10 6 6 6 10 13 13 14 13 13 7 4 4 4 5 5 5 5 6 5 6 7 7 7 6 7 7 8 7 7 7 8 7 7 7 8 10 8 9 9 9 8 8 8
2 0 0 1 2 2 1 1 1 2 3 4 5 7 6 3 3 4 5 7 8 9 8 8 9 9 8 7 7 5 4 4 4 4 5 4 4 3 4 6 7 7 7 5 5 5 5 7 9 12 12 13 11 5 4 4 4 4 5 4 5 4 5 5 6 6 7 7 8 8 8 7 7 7 7 7 7 7 7 7 8 8 8 8 8 9 8
1 1 2 3 3 3 1 1 1 3 4 7 6 5 6 6 5 5 6 6 7 7 7 7 7 8 9 8 6 5 5 4 4 2 2 1 0 2 4 3 4 6 8 8 9 8 11 10 10 11 12 12 6 4 4 4 4 4 4 5 5 5 5 5 6 6 6 6 7 7 7 7 7 7 6 6 6 6 7 6 6 6 6 6 7 7 8
3 3 3 3 3 4 3 3 3 4 3 2 2 4 5 5 5 7 6 7 9 6 6 6 8 6 4 5 5 5 5 4 4 4 1 1 3 4 5 5 7 6 6 5 5 5 6 8 9 9 10 8 4 3 3 4 4 4 4 4 4 4 5 5 4 5 5 6 6 6 6 6 6 7 7 6 6 6 6 6 6 6 6 5 6 6 6
1 1 2 2 1 2 2 1 2 2 2 3 3 3 3 3 4 5 4 4 3 4 4 3 3 3 4 4 4 3 3 3 3 4 4 4 5 5 5 4 4 6 7 6 4 4 5 8 7 6 6 4 3 3 3 4 4 3 4 4 4 4 4 6 6 6 4 5 5 5 6 6 6 7 7 5 6 6 6 5 5 7 10 7 6 5 5
1 1 0 0 1 1 2 3 3 3 3 3 3 4 5 5 5 6 4 4 3 4 3 3 2 2 2 2 1 1 1 2 2 3 3 4 4 5 5 4 4 5 5 4 3 3 4 4 4 4 5 4 4 3 3 3 4 4 4 4 4 4 4 5 5 5 5 5 5 5 5 5 6 5 5 6 7 6 6 7 6 6 6 6 6 6 5
1 1 1 2 2 2 3 3 4 4 3 4 4 4 5 5 5 5 4 4 3 3 3 3 2 1 1 1 0 0 0 1 1 2 3 4 4 3 2 4 4 4 3 2 3 3 3 4 5 5 5 4 3 3 4 5 3 3 3 3 3 3 4 4 4 4 5 6 5 5 5 4 5 5 5 5 5 6 6 6 5 5 5 5 5 5 5
Wind_Direction
275 277 278 278 279 278 280 277 276 273 274 271 263 259 269 274 257 269 283 286 284 284 282 287 285 297 343 154 147 149 131 146 181 206 221 229 229 232 236 248 250 255 266 275 287 292 297 306 308 315 316 317 318 324 323 326 325 331 331 330 329 327 328 326 328 328 324 320 314 313 319 317 313 312 313 314 313 311 309 307 303 301 295 290 293 292 286
272 272 273 275 275 277 274 270 268 269 268 266 266 274 276 269 268 271 273 274 273 278 275 277 290 81 94 110 111 127 176 206 210 237 245 251 247 247 258 274 280 280 276 283 279 284 287 291 301 303 307 305 309 309 309 312 317 321 333 330 328 326 323 322 322 325 323 319 315 315 316 312 315 311 307 307 309 314 313 307 304 305 305 298 288 281 284
264 260 261 268 275 282 279 276 273 268 264 264 269 275 272 276 271 263 263 263 266 267 290 85 82 75 101 91 172 197 223 230 253 259 265 262 259 257 263 277 287 288 284 284 285 284 288 292 293 297 295 298 297 294 293 299 303 313 324 323 320 321 318 317 318 316 317 312 310 310 309 312 313 314 310 306 306 304 303 304 309 309 304 301 299 294 289
269 261 271 277 287 282 274 273 265 258 261 269 265 261 264 266 266 263 265 265 270 283 96 59 105 108 105 269 302 293 293 282 293 289 288 289 284 275 271 278 282 284 283 280 282 282 284 284 284 284 285 286 288 284 289 294 297 304 307 304 306 304 305 309 309 311 309 310 306 299 299 300 305 310 306 300 298 302 306 305 305 307 306 302 299 293 290
255 262 272 282 318 317 270 241 241 252 257 252 258 256 253 249 259 265 261 270 339 91 164 202 239 110 334 326 291 323 311 298 288 287 284 289 289 283 276 275 280 276 277 280 279 279 275 271 270 268 271 274 273 278 286 291 294 293 292 294 296 297 298 299 299 299 301 302 301 298 292 290 294 301 301 295 291 292 294 299 302 302 300 301 301 298 293
266 278 303 79 253 252 244 306 145 233 254 264 266 265 263 263 259 281 325 140 158 179 109 105 56 344 351 327 316 304 282 284 291 283 289 290 292 290 282 275 279 282 278 281 281 280 278 274 269 270 265 268 271 274 277 282 287 283 282 281 282 284 287 286 285 287 289 289 288 288 288 294 296 295 297 291 287 287 290 295 291 291 294 295 293 290 290
267 276 129 255 231 243 23 129 247 250 280 269 258 263 266 273 282 294 274 279 228 152 105 87 2 336 314 309 299 294 287 266 261 280 297 304 307 306 298 288 281 279 284 287 291 294 298 303 304 296 294 294 300 305 309 309 308 299 290 284 275 273 278 279 279 279 279 278 278 278 277 281 288 290 293 295 286 278 282 286 287 290 292 293 291 290 288
267 255 246 249 247 116 240 238 209 222 234 251 266 267 261 259 257 259 265 267 259 189 76 16 358 316 305 299 287 283 278 274 269 284 299 313 320 316 314 306 297 290 290 294 296 299 310 320 317 322 318 322 320 315 317 307 299 292 287 285 283 278 279 277 275 273 273 277 276 275 268 266 277 285 291 291 287 282 284 279 277 278 281 282 287 288 286
254 249 248 249 297 289 267 265 257 242 245 267 263 289 303 44 249 262 233 243 171 128 6 329 322 304 297 288 281 273 275 257 263 295 310 315 317 313 309 309 305 303 299 295 300 319 336 338 338 333 332 331 322 314 305 296 294 290 288 284 282 280 284 283 284 283 280 279 278 276 265 267 275 280 284 287 282 277 288 287 284 282 282 283 281 281 282
247 260 266 268 266 264 273 260 58 43 53 31 342 319 273 225 235 246 185 218 138 42 318 305 304 302 277 286 288 300 345 85 243 296 306 317 317 320 318 316 313 309 313 338 3 357 339 335 338 337 332 324 314 309 305 303 301 296 294 292 292 292 290 290 290 285 281 282 281 278 272 271 277 282 283 283 277 279 281 284 286 284 284 283 281 278 277
261 254 256 256 257 260 106 246 51 57 70 39 350 288 281 234 161 83 97 77 51 259 266 279 284 249 271 273 287 307 7 331 319 310 309 313 314 315 320 321 330 5 7 354 340 340 338 332 331 334 333 326 318 313 311 305 302 300 301 300 301 300 297 295 292 291 291 291 288 287 281 277 283 286 284 281 274 278 276 276 275 281 282 281 281 280 278
237 246 248 253 256 273 57 122 122 125 102 49 352 290 287 108 178 147 114 2 307 279 272 274 272 258 270 280 293 326 316 316 310 308 310 312 315 316 321 355 21 348 346 347 334 333 332 326 334 339 337 329 318 316 312 311 305 303 304 305 305 304 300 294 292 292 295 295 292 290 287 286 288 286 284 281 276 276 276 274 274 276 277 275 279 279 278
239 239 251 264 265 269 256 257 127 144 127 62 272 256 312 177 185 181 199 243 268 276 280 277 277 268 279 291 297 301 306 303 301 304 307 304 312 334 7 21 358 340 329 326 324 325 326 335 342 344 340 330 318 316 313 309 307 308 309 308 304 300 296 293 292 291 292 294 297 294 292 291 290 286 281 277 279 279 278 277 273 271 273 274 275 278 277
243 249 254 250 266 252 248 281 199 145 153 250 257 316 111 161 188 210 224 244 260 268 264 273 277 285 286 288 290 288 292 297 301 302 303 321 354 8 353 350 340 325 323 323 325 331 341 350 343 338 340 325 317 315 310 303 307 308 308 308 307 303 299 297 300 302 303 300 296 293 291 289 286 282 279 276 275 278 274 272 271 272 272 273 273 270 272
243 242 254 261 262 29 124 118 85 206 229 253 284 135 179 170 217 244 250 251 262 263 276 280 287 285 284 282 283 288 288 294 297 307 350 357 338 334 334 328 337 346 329 326 329 335 338 336 335 335 339 319 308 307 300 305 311 311 315 313 310 307 304 305 306 305 302 301 299 299 295 292 289 287 286 284 280 278 276 274 271 271 269 269 271 267 268
260 244 236 227 263 267 168 172 238 230 231 246 272 271 273 260 292 289 285 268 265 273 279 286 284 282 284 282 280 285 290 293 305 338 340 331 327 322 327 337 350 13 334 330 324 323 331 328 332 335 330 316 310 308 304 313 314 313 312 311 309 305 303 302 303 302 302 301 299 297 295 293 290 286 285 283 280 277 276 273 274 272 269 264 263 263 267
259 263 263 278 314 280 180 209 238 256 277 272 263 276 280 286 284 285 270 277 282 282 282 277 276 281 280 283 285 288 293 306 324 321 317 320 320 324 332 346 12 10 343 326 323 316 321 327 320 321 322 314 307 301 303 313 312 313 312 310 307 301 300 300 298 298 298 295 295 293 289 288 285 283 279 277 277 275 272 270 268 267 267 266 263 265 267
255 265 272 281 275 260 236 216 225 250 258 262 269 266 267 261 268 274 278 283 284 282 275 266 264 262 272 280 284 289 303 314 310 309 309 315 325 333 351 346 2 351 333 320 312 308 311 324 316 316 312 308 301 298 307 310 309 308 308 305 300 297 297 293 293 295 294 292 287 284 285 284 280 279 281 281 278 277 274 271 270 268 268 269 268 268 268
264 257 249 252 256 259 258 257 248 240 239 254 263 268 266 271 271 272 269 271 276 279 277 260 262 267 272 277 283 296 302 303 306 310 310 317 335 347 343 342 350 335 331 315 311 311 308 317 314 310 310 301 294 299 305 305 305 303 298 298 297 296 294 295 294 295 292 292 292 289 286 285 281 282 282 281 280 279 277 277 274 271 271 271 271 271 272
241 256 256 257 256 262 263 264 267 264 262 262 263 260 260 264 269 258 254 254 262 255 253 249 254 260 264 269 281 290 296 300 306 308 313 325 336 335 337 329 339 323 314 309 308 311 308 312 310 304 298 296 297 300 299 301 301 300 298 296 295 295 295 294 293 293 290 291 290 289 288 286 286 285 281 278 278 276 278 279 279 278 276 273 273 273 275
254 260 258 260 264 266 265 262 258 259 261 262 261 265 268 271 263 182 163 188 241 233 250 214 244 260 260 269 280 287 294 296 298 312 328 327 325 325 321 317 328 318 312 305 302 304 301 304 303 300 296 295 300 302 303 304 304 302 300 298 298 298 297 294 291 291 289 289 289 288 289 286 280 279 280 280 277 276 268 266 267 272 273 272 272 274 275
254 243 242 243 257 264 262 254 251 253 258 262 258 258 257 235 231 202 183 175 177 194 229 233 236 241 263 264 277 280 288 295 310 316 321 322 318 313 312 312 313 307 303 301 301 300 297 300 298 299 298 296 302 305 304 303 302 299 301 302 299 295 294 293 292 291 290 290 290 288 287 287 287 280 273 274 276 277 279 275 274 273 273 273 272 269 269
247 239 241 239 244 258 266 276 278 274 271 248 238 238 247 249 207 163 187 193 181 189 195 170 198 234 255 273 309 296 289 297 313 317 322 316 311 308 311 309 307 307 304 302 298 294 296 301 302 302 302 304 304 302 299 297 300 301 301 299 297 295 294 292 292 293 292 290 287 285 286 286 285 286 287 279 275 277 278 279 278 278 278 277 278 277 274
260 262 267 266 262 267 272 271 276 276 219 209 225 241 229 145 143 156 187 211 216 203 169 171 181 228 247 291 319 288 292 295 308 312 310 305 301 299 299 299 305 306 303 303 301 300 303 303 299 298 299 299 300 299 297 299 298 297 297 297 295 295 293 292 292 290 287 286 287 285 285 284 285 286 287 288 284 275 278 281 282 282 283 283 283 283 284
255 254 259 261 263 263 266 279 246 133 139 192 224 225 171 158 144 155 183 177 168 180 201 190 169 138 176 259 282 283 291 302 310 307 303 294 286 286 293 297 293 296 300 300 299 299 297 295 295 294 297 296 297 297 297 297 297 294 292 292 292 291 291 290 288 287 286 285 284 285 285 285 284 284 285 287 289 292 283 281 284 285 284 284 284 285 285
245 250 253 254 258 262 264 173 222 186 168 167 159 115 105 104 118 136 146 154 153 150 177 205 190 157 89 278 300 304 302 290 298 301 290 284 285 288 286 288 294 294 293 293 290 289 290 290 292 294 294 293 296 297 299 298 295 289 287 285 285 288 288 288 288 286 284 282 283 283 281 284 285 286 285 285 287 289 294 295 290 283 281 282 284 286 287
242 244 250 257 256 258 245 225 254 149 144 150 162 139 129 119 111 108 97 95 102 104 156 130 117 76 43 332 294 282 278 291 297 283 275 280 284 285 291 294 289 289 289 289 288 284 283 286 290 291 291 296 298 297 296 294 292 290 288 286 285 283 283 284 285 283 282 283 283 283 285 285 285 284 283 285 285 287 288 291 291 293 293 287 284 285 285
242 236 226 235 242 247 240 62 79 101 111 129 133 128 123 116 110 108 121 153 172 159 136 131 157 121 279 277 270 283 282 277 273 277 282 280 286 294 289 285 286 287 287 286 284 282 278 284 288 294 295 297 300 298 291 290 295 295 292 289 288 287 288 287 285 282 283 284 283 284 284 282 282 281 283 284 284 283 282 282 285 287 288 286 286 288 290
243 240 223 239 95 91 102 116 108 114 119 105 103 103 118 117 140 159 189 191 176 167 192 181 128 160 243 269 283 278 277 276 279 281 284 291 291 288 288 288 286 286 285 282 279 277 283 293 297 296 294 300 301 300 300 301 300 298 298 295 292 290 288 287 285 284 284 282 280 279 280 280 281 280 279 278 277 278 278 281 283 283 287 292 293 292 293
246 99 114 122 122 140 136 167 187 164 143 150 138 139 155 151 167 188 181 175 171 190 210 180 207 236 242 267 267 264 272 279 284 292 293 292 289 288 286 286 289 279 270 270 286 301 301 297 297 298 298 304 304 307 309 306 303 300 294 291 287 286 287 288 289 289 288 285 283 282 282 280 278 279 279 279 279 280 282 283 283 286 289 290 292 293 296
84 69 79 96 114 161 198 204 155 158 144 146 158 152 160 177 197 180 184 175 167 187 186 199 253 272 267 260 266 277 283 284 286 288 286 283 283 279 277 274 281 298 301 299 300 300 296 296 295 292 295 303 309 311 310 310 309 306 302 299 295 294 296 297 298 296 292 291 290 288 284 282 279 278 277 278 279 278 279 277 281 282 285 286 287 289 289
103 77 71 110 157 176 199 186 150 169 168 157 151 177 182 175 187 190 161 142 196 198 234 242 244 244 252 262 265 274 282 285 286 283 280 279 275 273 271 272 270 276 285 292 294 294 297 297 297 296 305 311 310 309 312 313 311 307 302 303 300 301 299 303 303 299 297 294 293 289 283 281 280 277 276 275 275 277 276 278 280 281 282 285 285 285 288
115 283 273 202 165 271 234 212 186 187 161 168 180 164 130 109 125 143 179 190 204 219 231 245 249 259 259 268 273 275 276 282 279 275 267 262 262 269 277 281 282 285 288 287 289 291 289 290 295 309 313 308 308 309 308 307 309 304 303 302 302 301 303 303 303 304 301 298 295 293 292 286 282 281 278 278 279 277 279 280 281 282 283 282 283 283 283
208 228 261 147 183 198 209 210 178 162 139 145 136 133 151 164 161 166 180 196 216 245 242 248 250 255 262 266 269 277 284 283 279 271 273 283 289 289 284 286 288 290 285 286 286 284 283 292 311 312 305 305 306 304 300 307 311 308 304 306 304 304 305 306 308 307 304 303 300 299 297 293 285 280 281 282 282 282 283 282 282 282 283 283 282 282 282
75 79 90 78 56 55 34 127 169 165 152 152 153 144 156 147 150 179 201 213 226 233 240 241 248 252 256 258 269 267 260 253 263 272 274 280 284 287 291 296 297 298 296 290 282 275 291 311 310 302 300 302 301 295 301 309 311 311 312 308 306 304 305 308 309 308 308 306 307 307 309 309 309 303 290 285 284 285 281 279 278 279 281 283 283 284 285
83 90 78 80 60 50 66 70 72 96 124 140 145 153 161 173 188 207 204 226 240 251 248 256 259 259 249 246 254 254 250 255 262 266 270 274 279 293 298 299 300 300 300 299 288 274 319 318 308 306 310 307 300 302 310 318 318 322 315 313 309 310 310 311 311 311 312 311 314 315 313 314 313 314 318 311 302 296 294 291 291 292 291 291 295 302 310
54 90 93 95 94 82 77 81 94 116 128 143 163 168 187 189 197 210 227 240 246 250 252 258 259 239 239 247 254 258 258 259 262 268 279 289 293 291 292 292 291 273 280 288 308 344 326 316 305 310 311 296 294 305 313 330 336 328 319 313 311 313 314 315 317 317 316 318 320 318 319 320 322 322 325 328 327 328 327 328 332 330 328 332 335 335 335
86 84 94 99 108 107 97 98 107 112 120 139 194 197 199 204 204 202 209 232 247 255 263 257 252 251 254 259 259 257 259 262 263 269 272 274 275 286 287 281 279 282 288 286 319 323 314 307 308 310 301 293 304 309 317 330 337 330 317 316 314 315 314 317 319 319 321 322 322 321 322 323 324 326 328 328 331 332 332 333 333 334 335 337 340 344 346
112 99 86 94 96 101 117 114 110 152 173 196 213 217 212 200 213 203 216 238 237 242 252 248 245 248 252 256 263 265 261 262 265 266 266 270 273 275 271 272 267 264 267 294 310 301 301 301 310 306 298 293 309 307 322 332 335 327 321 319 320 315 317 319 321 320 321 322 322 325 327 328 329 329 329 331 332 334 335 337 336 339 342 343 345 349 352
124 124 115 117 114 115 116 163 162 189 206 205 207 240 219 204 237 239 242 242 248 241 239 242 243 247 253 251 259 262 263 259 259 264 268 273 279 279 280 270 254 248 248 280 298 300 303 305 308 299 298 306 312 319 327 331 331 322 322 322 318 321 322 324 322 322 324 327 328 330 330 330 331 331 331 334 335 339 340 339 342 344 346 347 350 350 351
118 134 148 132 142 148 181 191 223 211 197 219 234 252 266 257 262 256 250 248 248 233 233 230 241 247 245 250 254 260 270 273 268 263 262 273 271 264 270 283 262 168 289 313 314 312 307 304 305 302 306 318 317 330 330 325 325 317 319 323 326 326 325 326 327 329 329 330 331 330 329 331 330 332 335 336 339 342 342 345 344 347 347 350 351 351 353
128 120 124 149 156 193 208 242 260 266 263 244 254 254 257 251 244 246 256 254 258 252 250 244 238 245 250 254 257 263 264 265 263 260 249 240 251 265 276 267 284 306 330 327 323 317 305 301 299 301 312 323 320 326 329 321 320 322 322 326 329 328 325 327 327 326 324 326 326 328 330 329 331 333 336 339 342 344 345 346 349 349 352 352 356 358 358
130 133 161 177 217 226 228 240 255 274 286 290 270 254 252 254 254 259 256 253 250 253 253 253 254 256 256 255 257 262 266 264 258 253 254 243 229 223 234 262 307 319 325 320 318 309 306 301 308 297 323 326 324 327 325 321 323 321 331 330 327 328 328 328 327 326 330 333 333 335 335 336 338 340 342 344 343 346 349 351 355 354 355 358 1 4 9
145 166 188 200 217 228 221 268 276 284 284 290 303 299 277 268 255 250 251 250 252 246 245 250 251 248 245 241 239 248 257 254 256 258 276 288 280 232 215 238 273 305 314 318 319 308 300 303 298 316 322 327 329 329 323 320 326 326 334 333 330 325 326 330 333 332 331 333 336 337 337 337 339 341 345 344 344 347 352 352 355 354 353 356 1 5 7
177 175 193 193 177 63 274 271 276 282 297 310 311 292 279 267 263 250 244 247 248 252 243 241 238 239 240 236 232 237 246 259 261 267 264 273 282 285 121 192 285 298 307 320 312 300 296 294 305 316 323 327 331 328 322 328 332 333 334 333 331 330 331 331 333 332 332 337 338 335 336 337 337 340 343 345 348 348 349 349 354 357 2 3 1 10 13
178 176 186 192 226 222 250 287 314 342 310 299 293 286 272 257 256 256 236 235 241 243 238 235 237 239 237 243 252 255 250 252 242 233 238 234 246 278 359 331 307 296 308 312 302 298 293 298 307 317 324 329 330 323 320 325 328 327 335 333 331 334 334 334 336 335 336 337 337 338 340 337 339 342 344 345 347 347 346 351 358 6 8 8 8 7 5
130 92 181 216 262 273 288 302 316 291 286 284 264 269 285 268 234 237 247 229 227 239 241 239 240 243 241 238 244 254 256 258 258 233 219 228 238 264 290 295 291 299 306 306 296 292 290 303 309 317 325 329 323 316 320 327 333 331 328 330 330 333 333 335 336 336 337 336 334 327 331 343 345 344 348 352 356 360 355 358 7 3 4 2 3 5 3
143 201 238 229 243 256 252 232 226 245 239 243 254 274 278 288 284 270 262 257 245 239 240 241 238 237 234 234 233 232 243 255 279 286 126 152 234 284 281 277 291 303 308 298 284 270 272 285 307 321 331 329 318 320 323 330 324 327 331 333 332 332 337 340 339 345 336 334 336 340 342 345 346 347 349 354 352 358 356 356 354 352 354 8 12 6 7
190 216 243 237 242 237 219 222 225 236 252 246 234 257 265 266 272 268 265 255 248 245 239 233 233 235 232 214 216 218 218 216 224 248 324 316 295 294 292 294 295 301 298 282 278 278 286 304 311 317 324 316 312 318 317 323 322 321 323 328 324 327 333 333 330 332 331 332 332 334 336 336 341 344 342 345 348 348 349 355 358 2 352 348 1 5 10
195 194 218 211 205 207 213 250 266 267 290 300 277 277 276 276 284 284 283 280 274 272 272 272 257 231 216 210 200 211 213 210 227 251 273 279 277 272 274 276 281 284 279 275 280 286 297 305 307 320 325 313 309 314 318 319 319 320 321 322 329 322 320 324 316 323 328 328 329 331 332 335 337 332 335 344 340 341 349 347 345 346 350 357 358 354 355
177 210 254 287 263 263 232 229 244 272 284 279 278 280 281 281 280 287 289 295 292 287 280 275 257 235 212 196 183 193 187 218 239 248 263 269 265 265 263 275 282 273 274 276 288 299 307 311 316 320 318 309 305 311 316 321 318 314 317 324 321 322 326 332 335 336 333 332 324 324 327 332 334 332 339 343 341 343 342 345 349 352 353 351 353 351 349
222 248 273 272 264 267 263 247 234 225 226 247 260 276 285 288 289 291 294 294 292 290 297 297 287 244 154 136 49 335 238 253 267 267 256 254 259 265 273 269 270 264 268 290 303 299 292 294 295 287 287 293 298 303 302 301 302 306 309 309 314 317 319 319 324 326 323 326 327 325 324 329 330 329 335 336 337 337 338 341 343 343 344 345 344 346 343